User: anonymous   Login
Location: Nebula Knoll Observatory
(43.6666°N, 71.0000°W)
Time: 01:46:18
(UTC-04:00)
Language:

SeaSat 1 - Orbit

View from above orbital plane
View from above orbital plane
View from above satellite
View from above satellite

Ground track
Ground track

The orbit data is extracted from the following two-line orbital elements,

1 10967U 78064A   15247.17886099  .00000022  00000-0  47080-4 0  9992
2 10967 107.9966  17.5707 0002734 272.7902  87.2930 14.43430658952514
Epoch (UTC): 04 September 2015 04:17:33
Eccentricity: 0.0002734
inclination: 107.9966°
perigee height: 745 km
apogee height: 749 km
right ascension of ascending node: 17.5707°
argument of perigee: 272.7902°
revolutions per day: 14.43430658
mean anomaly at epoch: 87.2930°
orbit number at epoch: 95251

The dashed part of the orbit path shows where the satellite is in the earth's shadow,  

DLR